Regional Weather Roundup
Issued by NWS

Home | Current Version | Previous Version | Graphics & Text | Print | Product List | Glossary On
Versions: 1 2 3 4 5 6 7 8 9 10 11 12 13 14 15 16 17 18 19 20 21 22 23 24 25 26 27 28 29 30 31 32 33 34 35 36 37 38 39 40 41 42 43 44 45 46 47 48 49 50
000
ASUS43 KBIS 051510
RWRND

NORTH DAKOTA REGIONAL WEATHER ROUNDUP
NATIONAL WEATHER SERVICE BISMARCK ND
1000 AM CDT THU MAY 05 2016

NOTE: "FAIR" INDICATES FEW OR NO CLOUDS BELOW 12,000 FEET WITH NO
SIGNIFICANT WEATHER AND/OR OBSTRUCTIONS TO VISIBILITY.


NDZ001>003-009>011-017-051600-
NORTHWEST NORTH DAKOTA

CITY           SKY/WX    TMP DP  RH WIND       PRES   REMARKS
WILLISTON      SUNNY     68  46  45 SW8       29.85F
MINOT          SUNNY     77  43  29 SW16      29.83F
MINOT AFB      SUNNY     76  45  33 SW15      29.82S
$$

NDZ018>021-031>035-040>046-051600-
SOUTHWEST NORTH DAKOTA

CITY           SKY/WX    TMP DP  RH WIND       PRES   REMARKS
BISMARCK       SUNNY     73  43  33 SW9       29.92F
DICKINSON      SUNNY     68  45  43 S12       29.89S
GARRISON         N/A     70  43  37 SW12      29.88F
HETTINGER ARPT SUNNY     64  45  49 S5        29.94F
$$

NDZ004>008-012>016-024-026-027-054-051600-
NORTHEAST NORTH DAKOTA

CITY           SKY/WX    TMP DP  RH WIND       PRES   REMARKS
GRAND FORKS    SUNNY     79  43  27 W20G25    29.83F
GRND FRKS AFB  SUNNY     77  43  29 W21G31    29.83S
DEVILS LAKE    SUNNY     72  46  39 SW18G24   29.87S
$$

NDZ022-023-025-028>030-036>039-047>053-051600-
SOUTHEAST NORTH DAKOTA

CITY           SKY/WX    TMP DP  RH WIND       PRES   REMARKS
FARGO          SUNNY     68  40  35 S12       29.91S
JAMESTOWN      SUNNY     73  44  35 SW13G23   29.90S
$$





USA.gov is the U.S. government's official web portal to all federal, state and local government web resources and services.